Regional Weather Roundup
Issued by NWS

Home | Current Version | Previous Version | Graphics & Text | Print | Product List | Glossary Off
Versions: 1 2 3 4 5 6 7 8 9 10 11 12 13 14 15 16 17 18 19 20 21 22 23 24 25 26 27 28 29 30 31 32 33 34 35 36 37 38 39 40 41 42 43 44 45 46 47 48 49 50

000
ASUS45 KBOU 291007
RWRCO

WEATHER ROUNDUP FOR COLORADO
NATIONAL WEATHER SERVICE DENVER/BOULDER CO
400 AM MDT SUN MAR 29 2015

NOTE: "FAIR" INDICATES FEW OR NO CLOUDS BELOW 12000 FEET WITH NO
SIGNIFICANT WEATHER AND/OR OBSTRUCTIONS TO VISIBILITY.

COZ001>005-013-030-031-291100-
...NORTHWEST COLORADO...

CITY           SKY/WX    TMP DP  RH WIND       PRES   REMARKS
CRAIG          CLEAR     32  20  61 W6        30.27R WCI  26
HAYDEN         CLEAR     37  14  38 SW7       30.26R
MEEKER         CLEAR     34  19  54 CALM      30.27R
MOUNT WERNER   NOT AVBL
STEAMBOAT SPGS CLEAR     38  20  48 CALM      30.27R
WALDEN         CLEAR     34  18  51 W9        30.25F WCI  26
$$

COZ006>008-011-291100-
...WEST CENTRAL VALLEYS...

CITY           SKY/WX    TMP DP  RH WIND       PRES   REMARKS
GRAND JUNCTION MOCLDY    50  20  30 W3        30.14S
MONTROSE       CLOUDY    49  26  41 S6        30.22R
EAGLE          PTCLDY    43  28  56 E9        30.25R
RIFLE          CLEAR     46  18  32 S8        30.19R
DELTA          CLOUDY    51  27  39 SW8       30.17S
NUCLA          CLOUDY    45  21  39 NE6       30.25R
$$

COZ017>023-064>068-291100-
...SOUTHWEST COLORADO...

CITY           SKY/WX    TMP DP  RH WIND       PRES   REMARKS
DURANGO        CLEAR     34  22  61 E5        30.21F WCI  30
CORTEZ         CLEAR     35  20  54 E3        30.20R
PAGOSA SPRINGS CLEAR     37  22  56 CALM      30.26S
TELLURIDE      NOT AVBL
WOLF CREEK PAS CLEAR     32  14  47 SW17      30.45F WCI  21
$$

COZ009-010-012-014-032>034-037-058>063-291100-
...CENTRAL COLORADO...

CITY           SKY/WX    TMP DP  RH WIND       PRES   REMARKS
ASPEN          PTCLDY    42  27  55 CALM      30.25R
BUENA VISTA    PTCLDY    46  25  43 SW3       30.24F
COPPER MTN     PTCLDY    30  21  69 W18       30.38S WCI  18
BERTHOUD PASS  FAIR      23  16  74 NW31G39   30.36R WCI   5
COTTONWOOD PAS PTCLDY    43  23  45 NW20G32   30.29F
GUNNISON       MOCLDY    43  27  52 CALM      30.30R
KREMMLING      PTCLDY    36  10  35 NE3       30.27R
LEADVILLE      CLOUDY    30  27  88 N3        30.30F
SALIDA         PTCLDY    50  28  43 SW6       30.30S
SUNLIGHT       PTCLDY    36   5  27 NW7G18    30.41S
WILKERSON PASS CLEAR     32  23  69 W16G26    30.32S WCI  21
$$

COZ069>075-291100-
...SAN LUIS VALLEY/SANGRE DE CRISTO MOUNTAINS...

CITY           SKY/WX    TMP DP  RH WIND       PRES   REMARKS
ALAMOSA        CLEAR     41  19  41 NW7       30.21S
LA VETA PASS   PTCLDY    37  18  44 SW3       30.29S
SAGUACHE       PTCLDY    43  23  45 NW9       30.26R
$$

COZ035-036-038>040-291100-
...NORTHERN COLORADO FRONT RANGE...

CITY           SKY/WX    TMP DP  RH WIND       PRES   REMARKS
DENVER INTL AP PTCLDY    43  28  55 E10       30.12R
DMNS CITY PARK   N/A     53  20  27 NE13G21   30.13R
AURORA         NOT AVBL
FRONT RANGE AP CLEAR     45  32  61 NE10      30.14R
ERIE MUNI ARPT PTCLDY    48  18  29 CALM      30.10R
BOULDER MUN AP PTCLDY    57  12  17 SW8       30.09R
CENTENNIAL     PTCLDY    52  19  27 NW8       30.12R
BROOMFIELD     PTCLDY    54  10  17 NW6       30.13R
FORT COLLINS   CLEAR     55  18  22 NW15G21   30.11R
LONGMONT       CLEAR     55  14  19 N8        30.12R
$$

COZ041-046-047-076>085-087-088-291100-
...PIKES PEAK/PALMER DIVIDE AND SOUTHERN FOOTHILLS...

CITY           SKY/WX    TMP DP  RH WIND       PRES   REMARKS
COLO. SPRINGS  PTCLDY    51  28  41 N14       30.13R
A. F. ACADEMY  NOT AVBL
ELLICOTT       PTCLDY   N/A N/A N/A N20       30.09R
FALCON         PTCLDY    49  26  42 NW12      30.15R
FORT CARSON    NOT AVBL
LIMON          MOCLDY    47  29  49 N23G31    30.09R
MONUMENT HILL  CLEAR     41  28  60 NW17      30.15R
TRINIDAD       CLEAR     48  23  37 SW10      30.07R
$$

COZ042>045-048>051-090-091-291100-
...NORTHEAST COLORADO...

CITY           SKY/WX    TMP DP  RH WIND       PRES   REMARKS
GREELEY ARPT   CLEAR     48  19  32 NE18G24   30.10R
AKRON          CLEAR     43  27  53 N12       30.10R
BURLINGTON     PTCLDY    55  32  41 N29G39    30.02R
WRAY           PTCLDY    52  32  45 N14       30.06R
STERLING       CLEAR     43  27  52 N7        30.09R
HOLYOKE        NOT AVBL
FORT MORGAN    CLEAR    N/A N/A N/A N13       30.12R
$$

COZ086-089-092>099-291100-
...SOUTHEAST COLORADO...

CITY           SKY/WX    TMP DP  RH WIND       PRES   REMARKS
PUEBLO         CLEAR     51  26  37 NW12      30.03R
LA JUNTA       CLEAR     50  26  39 W6        29.99R
LAMAR          CLEAR     53  31  42 NW6       29.94R
SPRINGFIELD      N/A     55  25  31 NW16      29.96R
$$



USA.gov is the U.S. government's official web portal to all federal, state and local government web resources and services.